Temp
3 3 3 3 3 3 4 4 4 4 4 4 4 4 4 4 4 4 4 4 4 6 7 9 11 12 12 12 10 9 10 10 10 10 10 11 11 12 13 12 11 10 11 11 11 11 11 14 15 15 13 12 12 11
3 3 3 3 3 3 3 4 4 4 4 4 3 4 4 4 4 4 4 4 4 4 7 8 10 11 11 11 10 9 10 9 11 10 10 9 10 11 12 13 12 12 12 11 11 12 13 14 15 12 11 10 10 10
3 3 3 3 3 3 3 3 4 4 4 4 4 4 4 4 3 3 3 3 3 5 8 8 10 11 11 11 11 9 8 10 9 9 10 11 10 11 11 11 14 14 14 13 12 14 13 13 10 10 10 10 10 9
3 3 2 3 3 3 3 3 3 3 4 4 4 3 3 3 3 3 3 3 3 4 8 10 10 10 10 10 11 11 9 9 9 9 10 10 11 11 11 11 12 12 14 14 13 14 13 12 11 9 9 9 9 9
3 3 2 2 3 3 3 3 3 3 3 3 3 3 3 3 3 3 3 4 4 4 8 8 9 9 9 9 9 10 9 9 9 9 9 10 10 9 9 10 10 12 13 13 13 14 13 12 10 9 8 8 8 7
3 3 2 2 3 3 3 3 3 3 3 3 3 3 3 3 4 3 4 4 4 4 6 9 9 9 9 9 8 8 9 9 9 9 10 10 11 12 11 11 12 12 13 14 13 13 11 9 9 9 7 7 7 6
3 3 2 2 2 3 3 3 3 3 3 3 3 3 3 4 4 3 4 4 4 4 6 8 9 9 9 9 8 8 8 8 9 9 9 10 11 11 11 11 12 13 13 13 13 11 11 9 9 7 6 6 6 5
3 2 2 2 2 2 3 3 3 3 2 2 4 4 4 4 3 3 4 4 4 4 6 8 8 8 9 9 9 8 9 8 8 9 9 10 9 10 11 11 11 12 12 12 12 11 10 7 5 5 4 4 4 4
3 2 2 2 2 2 2 3 3 2 2 3 5 4 4 4 4 4 4 5 5 5 8 8 8 9 8 9 9 8 8 9 8 9 9 9 10 10 10 10 11 11 11 11 8 7 6 6 5 4 4 4 4 4
2 2 2 2 2 2 2 2 2 2 3 4 4 4 5 5 4 4 5 6 6 6 7 9 8 9 8 10 8 9 9 9 8 8 7 8 10 10 8 7 7 7 6 8 10 7 3 3 4 4 4 5 5 4
2 2 2 2 2 3 2 2 2 2 3 3 4 4 4 4 4 5 7 8 7 8 8 8 8 9 9 9 10 8 8 7 9 8 8 8 9 7 6 5 6 5 5 5 6 9 7 6 6 5 5 5 5 4
2 2 2 2 2 3 2 2 1 2 1 1 1 2 3 5 6 7 7 6 7 8 7 8 8 7 8 7 8 8 8 7 9 7 8 9 7 5 5 5 5 5 5 6 8 9 7 6 7 7 6 5 4 2
1 2 2 2 3 3 2 2 2 1 2 2 2 3 5 5 7 8 8 8 8 6 5 5 7 7 8 7 6 6 8 9 8 7 8 7 5 4 3 4 4 5 6 6 7 8 8 7 6 5 5 5 3 2
1 1 1 1 2 2 2 2 2 2 2 3 3 3 5 6 6 6 6 6 4 4 5 5 6 7 7 6 6 7 8 7 9 8 8 5 3 3 3 3 3 3 4 5 5 6 7 6 5 6 4 3 2 2
1 1 1 1 2 2 2 2 2 2 2 3 3 4 5 4 3 3 2 3 3 4 5 5 5 5 5 6 5 6 8 9 9 8 4 0 1 1 2 2 2 2 3 3 4 5 5 5 4 3 3 3 2 2
1 1 1 1 1 2 2 2 2 2 -1 1 1 3 4 4 4 3 3 3 2 3 3 4 6 7 7 6 7 9 9 9 7 2 -1 -2 0 0 0 1 1 1 2 3 4 5 5 4 3 3 3 2 2 1
1 1 1 0 1 1 1 1 1 -2 -2 2 2 3 2 2 2 2 3 3 3 3 5 5 7 7 5 6 7 7 8 4 1 -2 -3 -1 -1 -1 -1 -1 -0 -0 0 1 2 3 4 3 3 2 -0 0 1 0
1 1 1 0 1 1 0 0 -1 -0 1 1 2 2 2 2 2 3 3 3 3 3 3 5 3 5 6 7 6 3 2 1 -3 -3 -3 -2 -2 -1 -0 -1 -1 -1 -1 -0 0 1 2 2 -0 -1 -1 -1 -0 -1
1 1 1 1 1 1 -2 -1 -1 -0 -1 0 1 0 1 1 1 2 2 2 2 2 1 3 4 5 5 3 3 1 -4 -3 -2 -2 -1 -1 -1 -1 -1 -1 -1 -1 -1 -1 -1 -0 0 1 1 -1 -1 -1 -2 -2
1 1 1 1 1 0 -2 -3 -2 -2 -1 -1 -1 -0 -0 -0 -0 0 0 1 2 -0 1 2 4 2 1 -1 -4 -4 -4 -3 -3 -3 -3 -2 -2 -2 -2 -1 -0 -1 -1 -1 -0 -0 -0 -1 -1 -1 -1 -1 -2 -3
1 -0 0 0 1 -0 -3 -3 -3 -3 -2 -2 -3 -1 -1 -2 -2 -2 -1 -2 0 -3 -5 -2 -0 -2 -5 -3 -2 -3 -4 -4 -4 -4 -4 -6 -3 -2 -1 -1 -1 -1 -2 -2 -3 -2 -0 -2 -0 -1 -1 -1 -2 -2
-1 -0 -1 -0 -1 -3 -3 -4 -4 -3 -4 -3 -3 -3 -3 -3 -3 -2 -4 -0 0 -4 -4 -3 -5 -5 -5 -4 -5 -3 -3 -4 -5 -5 -4 -3 -5 -6 -4 -3 -2 -2 -1 -2 -3 -3 -1 -0 -1 -1 -1 -1 -2 -2
-1 -1 -1 -1 -2 -3 -4 -5 -5 -5 -3 -5 -5 -4 -4 -4 -3 -3 -2 -2 -4 -6 -5 -6 -7 -5 -6 -4 -4 -4 -4 -5 -7 -6 -5 -5 -5 -5 -5 -4 -4 -4 -3 -2 -2 -2 -2 -0 -0 -2 -2 -2 -3 -3
-1 -1 -2 -2 -3 -3 -6 -7 -5 -5 -5 -3 -4 -2 -4 -5 -5 -3 -2 -4 -5 -8 -7 -9 -8 -9 -9 -10 -10 -9 -3 -4 -5 -5 -5 -6 -8 -6 -6 -6 -6 -6 -5 -4 -4 -3 -2 -2 -1 -2 -3 -3 -3 -4
-1 -2 -3 -5 -8 -7 -8 -7 -6 -4 -2 -2 -2 -3 -6 -7 -7 -7 -4 -5 -10 -10 -10 -10 -11 -11 -12 -15 -11 -6 -4 -4 -7 -9 -7 -6 -6 -7 -8 -8 -7 -6 -5 -5 -4 -3 -3 -3 -3 -3 -4 -4 -4 -5
-1 -4 -4 -4 -8 -6 -6 -4 -4 -3 -2 -3 -3 -7 -7 -5 -6 -4 -4 -8 -9 -9 -9 -7 -8 -12 -10 -9 -10 -12 -5 -5 -6 -8 -7 -7 -8 -9 -11 -9 -8 -7 -6 -5 -5 -4 -4 -4 -4 -4 -4 -4 -4 -6
-1 -5 -5 -4 -5 -4 -4 -4 -3 -4 -3 -3 -6 -5 -5 -5 -4 -3 -7 -8 -8 -5 -2 -2 -4 -8 -7 -6 -5 -5 -6 -7 -7 -8 -8 -9 -9 -9 -9 -10 -9 -8 -7 -7 -7 -6 -4 -4 -4 -5 -5 -5 -5 -6
-3 -4 -5 -6 -6 -5 -4 -5 -4 -4 -4 -4 -4 -4 -4 -4 -1 -5 -7 -5 -3 -3 -3 -3 -3 -3 -4 -5 -6 -7 -7 -7 -8 -9 -9 -9 -8 -7 -8 -8 -8 -7 -8 -8 -7 -7 -6 -4 -4 -5 -5 -5 -5 -6
-5 -6 -5 -7 -6 -5 -4 -3 -4 -5 -4 -4 -4 -4 -5 -5 -9 -10 -5 -5 -5 -5 -6 -6 -6 -6 -6 -6 -7 -8 -8 -9 -12 -12 -12 -11 -10 -9 -7 -7 -7 -7 -7 -7 -6 -5 -5 -5 -4 -5 -5 -5 -6 -7
-7 -5 -5 -5 -5 -4 -5 -7 -7 -9 -9 -9 -9 -8 -8 -9 -6 -6 -5 -6 -8 -8 -6 -6 -6 -8 -9 -10 -11 -10 -8 -9 -10 -12 -11 -11 -10 -8 -9 -9 -8 -8 -8 -8 -7 -6 -4 -3 -4 -4 -5 -7 -7 -8
-4 -5 -5 -5 -5 -9 -11 -11 -12 -10 -11 -12 -13 -11 -9 -11 -9 -6 -6 -6 -7 -8 -9 -10 -10 -10 -11 -11 -13 -16 -13 -9 -9 -9 -9 -10 -10 -10 -9 -9 -9 -9 -9 -8 -7 -6 -5 -4 -4 -7 -7 -7 -7 -7
-6 -5 -4 -5 -8 -12 -12 -12 -11 -11 -11 -13 -12 -16 -14 -13 -11 -11 -8 -10 -11 -12 -11 -10 -12 -9 -8 -9 -10 -10 -11 -11 -10 -10 -9 -9 -8 -7 -7 -7 -7 -8 -8 -8 -7 -5 -4 -6 -7 -7 -8 -8 -8 -9
-9 -10 -9 -9 -10 -12 -13 -11 -12 -12 -13 -15 -15 -16 -17 -14 -9 -11 -9 -10 -9 -8 -8 -8 -8 -9 -9 -9 -9 -10 -10 -10 -9 -10 -9 -8 -7 -5 -6 -6 -6 -7 -7 -7 -5 -5 -7 -7 -8 -8 -8 -9 -9 -9
Height
793 791 790 791 791 790 788 787 786 783 781 780 778 775 773 771 769 765 762 761 762 756 746 739 737 735 734 735 743 749 747 750 752 750 749 746 745 733 730 735 744 750 750 749 754 756 752 712 711 716 714 711 713 715
789 787 787 787 788 787 784 784 782 780 778 776 775 772 770 768 768 766 763 760 761 760 748 740 737 737 737 736 739 745 744 746 745 747 749 752 746 739 734 729 731 736 734 739 741 734 715 712 709 713 714 714 714 714
785 783 785 783 784 784 781 780 779 776 774 773 771 768 766 765 764 764 761 759 757 754 744 740 737 736 737 736 736 743 746 743 746 746 747 744 748 738 737 734 721 721 720 723 728 711 713 713 716 715 714 714 715 714
781 779 781 780 780 779 778 776 774 772 770 768 766 763 762 761 760 761 759 758 758 756 745 737 735 735 735 736 736 736 738 741 743 744 745 745 739 736 732 731 727 723 717 718 718 711 712 713 714 715 716 714 714 715
776 776 778 777 777 775 774 772 770 768 765 763 760 758 756 755 756 757 755 753 753 757 746 739 737 736 736 737 737 737 738 740 742 743 743 739 738 741 737 733 731 717 715 718 717 708 708 710 713 714 717 716 715 716
772 773 774 774 773 772 771 768 766 764 761 757 754 750 749 749 752 753 751 748 749 752 749 739 737 736 736 737 737 738 738 739 739 738 736 735 731 730 732 724 712 709 706 705 708 705 707 711 713 715 717 718 718 720
768 771 771 771 769 769 767 765 762 759 756 752 748 744 743 745 749 749 746 747 747 750 748 741 737 735 736 737 738 738 737 737 738 738 737 731 729 728 728 725 709 706 705 704 703 706 709 712 713 716 717 719 721 723
766 768 768 767 766 765 763 761 758 755 751 747 744 742 742 745 747 747 744 745 747 748 746 742 739 737 735 734 734 735 734 736 737 735 731 729 729 729 723 716 714 709 703 702 702 702 703 709 714 718 720 721 724 727
763 764 764 764 763 762 759 758 755 751 747 744 744 745 746 745 744 744 744 746 747 750 742 741 741 737 734 733 732 734 733 731 734 733 729 730 720 722 722 719 715 713 710 708 710 710 712 713 716 719 721 723 725 728
759 761 761 761 760 759 756 755 752 747 742 742 743 744 743 742 742 743 746 745 745 743 742 736 735 732 735 729 733 730 731 730 734 731 732 728 721 719 726 725 722 719 716 711 708 714 718 719 718 719 720 721 723 727
756 758 759 758 758 756 754 753 750 744 742 742 744 743 741 740 741 741 739 739 740 739 734 732 734 733 733 734 729 732 734 736 729 734 730 730 724 733 730 726 721 716 712 710 708 704 705 707 710 714 717 720 724 727
754 756 756 756 755 753 752 750 748 744 744 746 746 744 741 740 739 739 738 740 737 734 734 732 734 735 734 733 734 734 734 736 729 734 731 727 732 737 734 728 722 716 711 706 703 703 703 704 706 710 715 719 723 728
750 752 753 753 752 751 749 748 746 744 743 744 745 746 741 741 737 735 731 731 731 736 738 737 735 735 733 735 739 738 733 730 733 734 729 735 741 739 735 728 723 718 713 709 706 704 703 705 707 709 714 718 723 727
747 749 750 750 749 748 746 745 744 743 743 744 744 747 739 734 733 731 734 736 740 739 738 737 737 735 733 736 735 734 731 734 730 731 733 743 744 742 738 733 727 723 718 714 711 708 706 707 709 712 714 718 722 727
745 746 747 746 746 745 744 743 743 743 743 744 746 742 737 738 737 739 740 740 741 740 739 738 739 740 739 739 739 735 731 724 723 729 744 753 748 744 739 734 731 726 722 718 714 712 710 711 712 714 716 719 723 727
742 744 744 744 744 744 742 741 742 743 744 745 747 741 738 738 738 739 740 740 742 741 741 742 739 736 734 736 734 724 725 722 731 749 754 751 747 744 741 737 733 729 725 721 716 713 712 713 714 715 718 720 724 727
741 741 742 743 744 743 741 741 741 744 746 743 743 740 741 741 741 740 738 740 742 743 739 741 734 730 738 734 732 726 723 739 748 754 752 749 746 744 740 737 734 730 726 722 719 716 714 714 715 717 720 722 724 728
739 739 740 742 742 741 741 741 742 744 743 742 743 742 741 742 742 741 741 741 744 744 744 738 743 736 731 725 730 738 743 746 750 750 748 745 743 741 739 737 733 730 727 724 721 718 716 715 717 718 720 722 725 728
736 738 739 741 741 740 742 743 743 744 746 743 742 743 744 744 744 744 744 745 746 746 747 745 741 734 731 733 734 742 750 749 747 746 744 741 741 740 738 736 733 730 727 724 722 720 718 717 717 718 720 723 725 728
735 737 738 740 740 740 743 745 744 746 746 746 744 745 746 747 747 747 747 747 747 749 748 743 733 734 735 739 741 743 744 744 746 745 742 739 739 738 736 734 731 728 726 723 721 720 719 718 718 719 720 721 723 726
734 736 737 739 740 741 743 744 746 748 747 746 746 746 748 750 751 751 749 748 747 753 753 738 733 734 736 736 738 740 741 742 743 743 741 740 737 736 733 732 730 727 725 723 722 719 719 717 716 717 719 720 722 725
732 735 737 739 741 742 744 746 747 747 750 749 749 749 751 751 750 747 746 744 738 738 734 731 733 733 735 736 737 737 738 738 739 739 738 736 734 733 732 731 729 725 723 721 719 717 714 714 715 715 716 717 720 723
732 736 738 740 742 744 748 746 750 750 749 752 752 749 751 749 747 747 745 740 734 725 725 727 728 730 732 733 735 736 735 735 735 735 734 733 731 730 729 727 727 725 720 717 716 714 711 710 710 711 713 715 717 721
731 735 738 740 742 745 749 753 748 750 749 747 748 743 748 749 750 746 739 735 724 724 724 726 727 731 732 733 735 732 732 733 732 731 731 730 728 725 725 723 722 720 718 714 711 709 707 707 707 709 711 712 714 717
732 737 740 746 751 752 756 753 751 746 740 740 741 743 749 750 755 755 738 728 727 726 724 725 727 728 733 733 729 728 728 729 729 727 725 726 724 722 720 718 715 713 713 710 707 705 704 703 704 705 707 709 711 713
725 731 736 736 748 745 745 743 743 740 738 739 740 749 749 747 752 737 727 723 721 718 719 720 723 728 727 725 726 725 724 725 725 723 719 720 720 720 717 715 711 705 706 705 704 702 700 700 700 702 703 706 709 711
718 728 727 727 731 732 736 735 734 737 735 736 743 745 744 747 734 719 713 709 709 707 707 710 714 717 716 717 718 720 721 721 720 717 716 714 713 712 712 709 705 700 700 700 700 698 696 695 696 697 698 701 704 706
709 715 723 729 730 730 731 735 734 733 729 728 730 733 731 727 713 709 706 704 704 705 707 709 711 712 713 714 715 715 715 715 713 711 708 704 702 700 699 697 695 694 694 693 692 691 691 690 690 691 693 695 698 701
710 710 715 727 729 728 725 724 722 720 718 719 722 721 720 712 707 704 703 703 703 705 707 708 709 710 710 710 710 711 711 710 710 709 706 700 696 694 693 691 690 688 687 686 684 683 682 683 684 685 687 690 693 697
707 703 712 716 717 716 715 718 720 722 721 721 721 719 715 709 702 701 701 701 702 702 702 704 705 707 707 707 706 706 706 704 703 704 700 695 691 688 687 685 684 682 681 680 677 675 675 675 678 681 683 687 691 695
695 700 705 707 711 718 721 722 722 722 723 723 724 723 717 713 702 695 695 695 697 699 700 702 703 703 703 703 703 703 701 697 696 695 693 689 685 681 678 676 674 674 673 672 671 670 670 670 672 677 681 685 689 694
696 696 699 706 715 723 723 724 724 724 724 725 722 725 721 719 714 696 691 692 693 695 695 698 699 698 699 699 698 698 697 693 690 687 684 680 675 671 669 668 667 666 666 665 665 665 665 667 671 676 680 685 689 694
705 708 708 710 717 724 725 723 726 726 727 729 726 725 725 721 709 695 690 689 691 691 692 694 695 696 696 695 694 693 691 688 684 680 676 673 669 665 661 660 660 660 660 660 660 661 663 666 670 675 680 684 689 695
Wind_Speed
9 7 8 12 13 14 14 14 14 14 14 14 14 14 13 13 13 14 10 5 5 2 5 3 3 2 0 2 3 4 2 1 1 2 1 2 2 3 1 6 7 7 6 3 4 3 7 4 3 1 2 2 2 3
9 9 10 11 13 14 14 14 14 14 13 14 14 14 12 12 11 10 4 7 11 3 4 5 8 6 2 2 4 2 2 2 3 2 1 2 2 2 2 2 3 4 6 5 7 6 6 3 2 1 1 2 0 4
10 8 11 11 13 14 15 15 15 15 15 15 15 14 13 11 10 9 10 9 4 3 3 2 3 4 3 1 1 4 1 4 2 3 1 2 4 1 2 4 4 3 6 3 3 5 9 4 2 1 1 1 1 4
10 10 12 12 13 14 16 15 15 15 16 16 16 15 14 13 10 10 12 7 7 3 2 0 2 2 2 2 3 2 6 4 3 1 2 2 2 2 2 3 1 4 4 4 4 6 3 1 2 4 2 3 3 3
11 9 12 13 13 14 16 15 16 17 17 18 17 16 17 12 11 11 15 14 11 2 2 2 6 1 1 1 3 5 8 3 2 2 3 3 2 2 3 1 3 4 6 4 4 4 3 2 2 5 4 3 4 7
8 8 13 13 13 14 17 16 16 17 18 19 19 19 15 10 7 5 2 4 12 8 2 1 1 2 1 2 3 3 3 2 2 2 2 2 4 1 2 2 6 4 2 2 4 3 2 5 4 3 4 4 5 6
9 12 13 12 13 14 17 15 16 18 19 19 20 12 5 7 11 4 2 2 8 6 2 2 2 1 4 2 1 1 3 1 2 1 2 2 2 1 2 3 6 8 7 4 5 6 2 5 4 5 7 6 11 10
10 12 11 11 11 14 14 15 16 18 18 19 9 10 4 9 5 6 6 6 5 3 2 1 2 1 4 1 2 2 2 2 2 2 2 3 2 3 3 5 5 7 8 5 1 1 3 7 7 6 6 8 9 7
10 12 11 10 11 14 13 15 17 19 19 12 4 5 7 1 3 2 5 8 5 3 1 1 1 2 1 2 1 1 2 2 2 2 2 1 2 3 3 7 8 6 4 0 5 6 6 5 7 7 7 7 8 7
9 10 9 10 10 13 12 14 17 19 10 2 3 3 2 4 2 3 2 2 2 2 2 2 1 1 2 0 2 1 1 0 2 1 2 2 2 3 10 7 6 8 7 4 3 1 1 2 7 7 7 6 8 9
8 8 8 10 10 11 10 13 15 16 2 3 2 2 2 3 4 2 2 3 2 2 2 2 2 1 0 1 1 0 1 1 1 0 1 1 1 6 12 11 9 8 7 7 7 4 7 6 10 9 7 8 10 14
7 7 8 9 9 9 9 11 13 7 3 1 4 6 3 1 1 1 2 0 2 3 1 1 1 0 2 0 1 1 1 1 2 1 1 1 2 8 10 12 12 10 8 8 2 5 4 6 9 9 9 9 14 17
8 5 8 8 8 10 8 9 10 3 2 2 1 2 0 0 2 3 5 3 2 2 1 1 0 1 1 1 1 1 1 2 1 1 1 0 4 8 11 11 13 11 10 7 7 6 3 6 11 13 9 16 20 20
10 6 8 8 8 9 8 9 6 2 2 1 2 2 3 3 3 2 2 1 1 2 1 1 1 1 1 0 1 1 1 2 1 1 2 2 8 9 10 9 10 12 11 8 7 6 2 6 7 12 16 20 20 19
12 8 8 11 8 5 5 6 1 1 1 2 2 4 4 2 2 2 1 2 1 1 1 1 1 1 1 1 1 0 1 3 3 2 1 3 6 7 9 10 9 10 9 7 5 4 3 5 8 9 16 19 19 21
7 5 5 2 2 4 4 1 2 1 2 1 1 2 0 0 1 1 1 2 1 1 1 1 0 0 2 2 1 4 2 4 2 1 3 3 5 6 6 8 8 9 8 7 7 4 2 6 8 11 17 18 19 23
7 3 4 3 4 5 2 1 2 2 2 2 2 1 0 1 0 1 2 2 1 1 1 1 3 3 1 1 2 2 2 2 1 2 2 3 5 6 5 6 7 10 10 10 10 6 1 6 13 15 7 13 20 20
5 6 4 4 5 1 1 2 2 1 3 2 1 2 1 1 1 1 2 2 1 0 1 1 0 2 3 3 3 2 2 1 2 2 2 4 6 6 7 6 12 13 10 12 10 7 3 12 8 5 15 19 21 22
10 6 4 3 3 0 2 1 2 2 3 1 1 2 1 1 1 2 2 2 2 1 1 1 3 3 3 2 2 2 1 2 2 2 4 8 4 7 11 13 13 13 13 13 10 7 3 6 11 16 19 19 14 16
9 4 7 3 2 1 2 1 1 1 2 1 1 1 1 1 2 2 1 2 3 1 2 3 4 2 2 3 2 3 2 2 1 3 3 2 8 14 11 11 9 15 14 12 10 6 4 4 9 16 19 18 17 16
11 7 9 5 1 2 2 2 1 1 0 1 1 2 0 1 1 3 3 2 2 3 3 4 3 3 2 4 4 3 3 3 3 3 2 3 5 9 10 13 14 12 7 9 5 8 9 10 13 16 17 15 16 17
5 12 3 2 2 2 2 2 1 0 1 1 1 1 1 2 2 3 1 3 3 4 3 3 2 3 2 1 2 4 5 7 7 8 9 10 4 2 4 10 12 7 11 11 14 11 13 16 15 17 19 19 20 22
12 6 2 2 1 1 2 1 2 1 3 2 1 1 2 2 1 0 2 3 3 3 4 3 3 3 3 2 3 4 5 8 5 7 8 9 14 15 15 15 14 12 9 14 14 17 15 16 16 16 19 19 20 19
8 3 4 3 2 2 2 1 1 1 1 2 2 2 2 2 1 2 3 3 3 1 2 3 4 2 2 2 1 3 7 8 10 11 11 12 6 11 12 15 15 17 19 21 19 18 18 16 16 16 18 19 20 21
4 4 4 3 2 3 1 1 2 3 2 3 2 2 2 1 1 3 3 3 2 2 2 3 1 2 3 2 2 6 6 8 9 5 10 10 16 17 14 17 19 18 14 18 14 16 15 14 15 17 18 19 21 21
5 6 8 7 3 5 5 4 5 5 3 3 4 1 1 2 1 6 3 3 3 4 4 6 5 2 3 7 3 1 8 8 10 8 14 15 16 12 6 7 8 15 13 13 16 15 15 16 16 17 19 21 24 23
6 6 3 1 3 3 1 1 1 2 4 5 3 4 3 3 5 4 2 3 3 7 14 21 19 9 6 8 9 10 11 14 14 17 22 24 25 25 23 16 11 19 18 19 18 18 18 17 18 20 20 21 25 27
4 5 7 5 2 1 4 3 4 5 4 3 5 5 5 7 4 3 3 2 5 5 7 10 12 14 13 12 12 14 17 14 16 20 24 27 25 23 22 24 25 24 23 22 23 21 21 20 20 21 23 23 23 27
3 3 4 4 3 4 5 6 5 3 1 4 4 4 4 3 2 2 3 4 7 8 8 8 9 9 11 12 13 14 15 15 8 8 12 9 6 10 14 16 16 14 14 19 20 20 24 25 24 25 25 25 24 27
4 3 4 5 6 7 4 2 2 0 0 0 1 2 2 3 4 6 7 8 10 13 12 8 8 8 8 8 10 14 14 15 18 15 8 9 9 21 22 24 25 26 24 21 21 20 17 20 21 20 21 23 25 25
5 2 3 3 4 1 1 1 1 1 1 1 1 2 3 3 7 9 16 18 15 11 9 10 12 13 13 12 10 5 7 10 8 15 21 28 31 32 30 29 28 25 23 22 20 18 17 16 19 21 23 23 25 26
2 3 4 5 2 1 1 1 1 1 1 1 2 1 3 3 3 3 4 9 10 8 13 12 11 9 5 6 9 11 15 20 23 24 24 27 30 32 28 23 20 18 17 17 17 17 18 24 23 23 23 25 26 26
2 2 2 3 2 1 1 2 1 2 1 1 2 2 2 3 6 3 3 9 9 6 10 8 6 7 7 8 9 11 14 18 19 19 21 21 22 21 19 20 18 14 13 15 16 20 26 26 24 24 25 27 28 29
Wind_Direction
273 303 317 312 315 312 316 321 320 327 331 331 331 332 335 337 338 344 308 297 7 309 286 289 335 11 166 148 153 177 105 74 90 231 216 233 242 258 121 140 166 176 169 192 182 210 264 235 312 258 232 262 296 154
281 302 304 310 311 308 316 316 314 318 321 321 322 323 322 326 319 329 292 312 323 235 280 301 287 293 302 198 127 151 159 149 170 194 235 343 298 311 189 232 166 183 187 180 195 210 240 349 253 37 179 215 158 128
275 295 298 309 311 306 314 316 311 315 316 316 315 314 314 315 310 300 307 313 314 270 256 233 216 209 198 118 115 126 301 164 168 174 156 236 262 203 253 246 178 237 193 216 123 253 248 156 105 92 82 122 277 130
276 304 304 307 307 306 310 313 310 313 314 313 312 315 306 300 288 282 286 275 290 263 290 286 110 57 336 261 219 148 140 105 111 127 186 253 261 349 273 272 238 222 147 208 263 290 91 130 113 165 164 114 93 84
274 300 301 301 305 304 307 311 311 312 315 313 313 304 296 283 275 273 272 266 246 227 317 298 313 219 268 211 155 142 142 130 146 184 196 223 206 214 246 280 246 201 205 175 229 239 174 220 173 151 155 140 124 120
268 296 290 296 307 301 310 317 314 316 318 319 315 312 304 273 242 251 261 218 207 199 265 288 38 147 115 146 159 182 172 152 188 193 219 221 248 296 267 258 251 250 234 211 238 189 126 132 135 137 133 129 114 113
262 281 286 299 305 301 313 317 317 321 322 326 323 328 300 209 206 204 318 93 153 187 253 303 327 157 171 154 159 206 196 166 159 206 226 266 291 221 251 243 293 314 292 310 186 127 151 183 183 140 125 109 103 90
255 275 284 298 299 306 317 316 322 321 327 331 0 16 128 159 195 258 272 213 210 247 256 285 267 327 179 197 220 180 181 159 188 267 251 221 183 173 260 267 300 307 294 353 169 4 122 110 111 112 112 116 108 111
258 278 289 299 294 310 319 322 323 323 327 331 128 127 142 201 202 178 158 164 228 259 289 166 163 269 122 245 173 199 215 194 158 221 241 312 158 216 259 336 335 334 335 277 46 91 107 124 142 140 140 138 131 137
268 280 295 298 298 309 323 328 326 328 342 123 134 228 196 185 205 185 148 166 206 207 226 244 233 262 141 270 274 236 169 216 211 250 315 243 260 2 13 337 319 324 323 270 156 249 102 163 174 174 177 164 151 148
266 281 292 291 306 320 334 327 330 342 106 66 15 275 321 264 182 203 178 182 172 236 210 221 182 250 64 231 313 292 234 230 268 232 289 272 340 342 340 334 330 323 315 290 261 268 208 188 178 172 166 149 148 150
244 285 292 283 307 322 326 334 336 9 50 325 285 301 306 287 356 127 189 320 200 218 165 160 134 269 289 75 131 316 202 53 260 174 3 314 62 332 335 330 331 328 323 320 285 244 196 181 167 161 151 151 147 138
238 270 293 288 312 315 327 331 337 346 65 88 118 325 299 140 191 215 185 203 200 184 223 43 229 236 327 39 123 111 117 232 97 58 273 309 334 342 338 339 341 343 351 358 342 348 172 139 136 146 150 147 145 146
220 248 279 287 299 307 321 330 341 75 98 65 104 267 217 177 231 171 161 118 359 70 67 64 296 236 268 62 197 153 212 73 252 225 233 20 339 331 331 335 342 344 345 348 351 348 86 140 143 148 146 151 151 153
221 253 284 297 294 298 317 333 358 100 103 157 136 215 220 236 61 103 132 98 347 320 30 64 355 71 349 313 197 101 159 223 209 187 93 273 316 318 330 337 338 337 336 335 339 356 52 117 131 128 149 154 154 152
209 256 267 281 281 327 326 10 118 100 72 161 288 263 253 353 156 93 83 83 5 7 23 36 273 242 244 227 183 218 206 218 147 156 245 295 317 317 321 327 327 327 327 330 337 334 172 158 150 148 153 155 157 159
187 215 198 204 300 332 327 123 117 73 161 181 252 216 73 20 341 142 122 105 18 40 193 219 204 216 7 216 238 235 217 114 125 265 255 288 305 311 318 327 333 335 335 335 334 339 215 168 156 143 136 155 161 164
193 195 174 213 294 315 101 58 83 83 202 231 204 220 82 45 55 79 85 59 46 334 268 234 55 215 214 225 210 129 130 173 222 226 266 292 309 319 341 340 344 337 331 332 332 328 211 159 148 148 155 157 152 155
192 222 192 217 270 148 95 38 66 176 242 2 36 57 55 43 12 37 66 55 291 101 12 294 247 221 230 158 132 154 183 172 234 281 281 287 310 347 344 339 332 333 334 329 318 310 264 205 189 173 165 160 154 157
195 223 189 205 250 120 64 356 70 95 201 229 60 86 60 32 355 20 346 222 186 186 205 223 226 229 184 190 163 164 180 193 230 280 264 279 348 337 324 321 321 322 324 325 316 296 239 199 193 188 180 173 162 170
179 157 173 150 129 69 112 134 60 175 256 162 112 96 101 50 255 225 215 230 187 206 238 229 211 164 147 122 146 174 207 205 215 215 277 294 286 300 317 327 327 320 305 311 300 285 253 238 218 202 194 187 184 177
136 172 106 130 81 37 80 16 135 183 114 189 102 108 180 201 215 212 215 207 229 227 208 182 189 153 130 172 217 208 256 271 269 269 275 280 301 312 313 312 315 310 306 301 291 276 262 261 243 221 199 186 182 178
130 108 96 91 82 102 243 53 100 254 173 220 115 177 226 224 216 69 241 232 250 231 177 156 159 151 157 183 227 256 269 256 258 271 285 291 294 294 290 290 294 298 301 298 301 297 278 268 227 206 193 177 169 167
113 121 159 192 148 220 51 332 230 151 50 186 173 248 236 198 90 210 250 241 240 200 139 169 135 88 37 35 237 232 235 242 260 272 279 284 283 284 284 290 287 280 278 283 289 285 281 243 218 195 183 175 172 169
127 206 139 203 341 89 167 206 213 204 225 173 164 252 239 135 164 237 235 261 244 220 202 155 109 169 170 251 262 250 261 242 247 267 280 260 269 284 287 285 285 283 287 304 289 275 255 231 213 192 186 185 179 173
194 195 172 186 197 167 192 175 200 195 170 154 227 202 156 147 165 243 230 224 213 190 181 190 189 183 251 216 239 244 276 268 268 264 285 281 267 255 260 281 294 293 284 289 289 273 244 224 207 199 197 198 192 172
189 198 191 189 149 119 98 2 42 152 172 198 195 175 156 202 238 245 258 224 187 213 208 209 200 196 221 236 251 266 271 281 276 273 288 285 281 274 262 258 262 268 280 285 284 282 256 227 215 204 200 195 193 185
178 163 165 181 139 150 150 186 183 213 212 190 138 188 197 204 239 235 210 163 198 167 179 195 216 233 248 265 279 284 289 291 295 295 291 287 282 280 274 271 273 281 279 280 279 275 266 248 223 207 200 195 190 187
158 160 117 130 135 191 203 194 215 218 197 160 181 211 233 230 239 228 210 192 188 194 200 216 228 251 263 270 275 279 286 290 295 291 287 287 298 287 298 293 285 294 302 300 292 270 257 247 231 213 202 193 183 177
199 161 113 159 167 205 214 168 192 119 301 174 307 307 285 272 264 250 227 213 203 218 234 247 260 248 253 267 284 291 288 286 266 241 262 272 270 293 293 288 286 285 290 295 290 285 269 238 220 203 179 164 160 161
136 114 114 146 205 92 77 24 354 351 24 333 335 213 262 307 302 257 242 243 243 237 231 232 242 247 245 251 248 267 293 311 277 277 275 277 280 282 283 286 290 288 284 282 276 267 247 204 176 159 158 159 163 161
111 158 143 162 187 116 90 118 137 232 298 331 270 321 318 348 279 275 212 193 184 201 226 230 225 241 241 262 277 281 286 294 300 300 297 295 292 292 290 286 284 283 276 265 265 242 202 162 154 159 159 159 157 155
78 66 70 104 121 174 219 126 39 324 315 278 266 204 218 202 244 277 254 221 221 231 213 217 238 256 263 272 284 294 310 314 318 311 300 291 291 308 283 276 274 273 263 259 223 189 165 156 153 154 154 151 150 149